Regional Weather Roundup
Issued by NWS

Home | Current Version | Previous Version | Text Only | Print | Product List | Glossary Off
Versions: 1 2 3 4 5 6 7 8 9 10 11 12 13 14 15 16 17 18 19 20 21 22 23 24 25 26 27 28 29 30 31 32 33 34 35 36 37 38 39 40 41 42 43 44 45 46 47 48 49 50

000
ASUS44 KMEG 011510
RWRTN
TENNESSEE HOURLY STATE WEATHER ROUNDUP
NATIONAL WEATHER SERVICE MEMPHIS TN
1000 AM CDT MON SEP 01 2014

TNZ002-004-019-021-049-052-054-088>092-011600-
WEST TENNESSEE

CITY           SKY/WX    TMP DP  RH WIND       PRES   REMARKS
MEMPHIS INTL   PTSUNNY   84  74  71 SW10G16   30.06S HX  91
NWS MEMPHIS      N/A     83 N/A N/A MISG        N/A
JACKSON        MOSUNNY   82  74  76 SW12      30.06F
DYERSBURG      CLOUDY    82  66  57 SW10G20   30.04F
UNION CITY     CLOUDY    79  75  89 SW9       30.01F
PARIS          PTSUNNY   81  73  78 SW13      30.05F
HUNTINGDON     PTSUNNY   81  73  76 SW10      30.05F
LEXINGTON      MOSUNNY   82  73  74 SW7       30.06F
SAVANNAH       MOSUNNY   82  79  89 SW9       30.09S HX  93
$$

TNZ008-025-027-028-033-062-065-066-011600-
NORTH MIDDLE TENNESSEE

CITY           SKY/WX    TMP DP  RH WIND       PRES   REMARKS
NASHVILLE      MOSUNNY   84  72  67 SW12      30.09S
DICKSON        MOSUNNY   81  72  74 SW13      30.08S
PORTLAND       MOSUNNY   81  73  78 SW9       30.07
CLARKSVILLE    PTSUNNY   81  73  76 W12       30.05F
LEBANON        SUNNY     83  72  69 SW10      30.08S
SMYRNA         MOSUNNY   84  73  69 SW9       30.10S HX  90
MURFREESBORO   SUNNY     84  71  65 SW9       30.09S
COOKEVILLE     SUNNY     84  73  70 VRB7      30.12S HX  91
GALLATIN       SUNNY     84  76  77 VRB5      30.09F HX  92
CROSSVILLE     SUNNY     80  69  69 W9        30.18R
$$

TNZ061-075-076-078-094-096-097-011600-
SOUTH MIDDLE TENNESSEE

CITY           SKY/WX    TMP DP  RH WIND       PRES   REMARKS
LEWISBURG      SUNNY     85  72  65 SW8       30.10S HX  91
FAYETTEVILLE   SUNNY     81  72  74 VRB6      30.13R
TULLAHOMA      SUNNY     82  72  69 SW9       30.14S
WINCHESTER     SUNNY     84  72  65 VRB5      30.13R
MCMINNVILLE    SUNNY     84  75  74 SW7       30.13R HX  92
COLUMBIA         N/A     84  75  74 SW10      30.08F HX  92
SHELBYVILLE    SUNNY     84  73  70 SW7       30.12S HX  91
$$

TNZ017-018-042-046-047-011600-
NORTHEAST TENNESSEE

CITY           SKY/WX    TMP DP  RH WIND       PRES   REMARKS
TRI CITIES     MOSUNNY   80  69  69 VRB5      30.17S
ELIZABETHTON   MOSUNNY   79  68  69 CALM      30.18S
$$

TNZ012-013-036-069-073-074-011600-
CENTRAL EAST TENNESSEE

CITY           SKY/WX    TMP DP  RH WIND       PRES   REMARKS
KNOXVILLE      MOSUNNY   80  70  71 S5        30.13S
OAK RIDGE      SUNNY     79  72  79 CALM      30.15R
GATLINBURG     MOSUNNY   81  70  69 CALM      30.14S
MORRISTOWN     SUNNY     81  72  74 VRB5      30.17S
$$

TNZ083-085-099-011600-
SOUTHEAST TENNESSEE

CITY           SKY/WX    TMP DP  RH WIND       PRES   REMARKS
CHATTANOOGA    MOSUNNY   82  71  69 S5        30.14R
$$

SKY/WX REPORTED AS FAIR MEANS FEW OR NO CLOUDS BELOW
12 THOUSAND FEET.



USA.gov is the U.S. government's official web portal to all federal, state and local government web resources and services.